TimePST,TemperatureF,Dew PointF,Humidity,Sea Level PressureIn,VisibilityMPH,Wind Direction,Wind SpeedMPH,Gust SpeedMPH,PrecipitationIn,Events,Conditions,WindDirDegrees,DateUTC
12:11 AM,57.2,46.4,67,29.86,10.0,SW,5.8,-,N/A,,Overcast,220,2013-12-19 08:11:00
12:32 AM,57.2,46.4,67,29.86,10.0,SW,5.8,-,N/A,,Overcast,230,2013-12-19 08:32:00
12:53 AM,57.0,46.0,67,29.86,10.0,WSW,6.9,-,N/A,,Overcast,240,2013-12-19 08:53:00
1:05 AM,57.2,46.4,67,29.85,10.0,WSW,4.6,-,N/A,,Overcast,240,2013-12-19 09:05:00
1:16 AM,57.2,44.6,63,29.84,10.0,SW,3.5,-,N/A,,Overcast,230,2013-12-19 09:16:00
1:53 AM,55.9,45.0,67,29.84,10.0,Variable,3.5,-,N/A,,Overcast,0,2013-12-19 09:53:00
2:53 AM,55.9,44.1,64,29.84,10.0,SW,9.2,-,N/A,,Overcast,220,2013-12-19 10:53:00
3:53 AM,55.9,42.1,60,29.82,10.0,SSW,5.8,-,N/A,,Overcast,200,2013-12-19 11:53:00
4:53 AM,55.0,42.1,62,29.79,10.0,SE,3.5,-,N/A,,Mostly Cloudy,130,2013-12-19 12:53:00
5:24 AM,55.4,44.6,67,29.79,10.0,South,5.8,-,N/A,,Overcast,190,2013-12-19 13:24:00
5:53 AM,55.9,44.1,64,29.78,10.0,South,5.8,-,N/A,,Mostly Cloudy,190,2013-12-19 13:53:00
6:53 AM,55.0,45.0,69,29.79,10.0,ESE,3.5,-,0.00,,Overcast,120,2013-12-19 14:53:00
7:53 AM,55.9,43.0,62,29.80,10.0,SW,3.5,-,N/A,,Overcast,220,2013-12-19 15:53:00
8:53 AM,57.0,43.0,59,29.81,10.0,SW,3.5,-,N/A,,Overcast,230,2013-12-19 16:53:00
9:53 AM,57.9,43.0,58,29.80,10.0,ESE,4.6,-,N/A,,Mostly Cloudy,110,2013-12-19 17:53:00
10:29 AM,57.2,44.6,63,29.80,3.0,WSW,3.5,-,0.00,Rain,Rain,250,2013-12-19 18:29:00
10:49 AM,53.6,46.4,77,29.79,6.0,Calm,Calm,-,0.07,Rain,Rain,0,2013-12-19 18:49:00
10:53 AM,53.1,46.9,80,29.79,6.0,Calm,Calm,-,0.08,Rain,Rain,0,2013-12-19 18:53:00
11:23 AM,53.6,48.2,82,29.77,6.0,WNW,5.8,-,0.04,Rain,Heavy Rain,300,2013-12-19 19:23:00
11:44 AM,53.6,48.2,82,29.76,6.0,West,5.8,-,0.11,Rain,Rain,280,2013-12-19 19:44:00
11:46 AM,53.6,48.2,82,29.76,2.0,West,5.8,-,0.12,Rain,Heavy Rain,280,2013-12-19 19:46:00
11:53 AM,53.1,46.9,80,29.75,1.8,NW,3.5,-,0.15,Rain,Heavy Rain,320,2013-12-19 19:53:00
11:58 AM,53.6,46.4,77,29.75,3.0,NW,3.5,-,0.00,Rain,Light Rain,310,2013-12-19 19:58:00
12:53 PM,55.0,45.0,69,29.73,8.0,WNW,12.7,16.1,0.01,Rain,Light Rain,290,2013-12-19 20:53:00
1:07 PM,55.4,44.6,67,29.73,10.0,WNW,12.7,-,0.00,,Overcast,290,2013-12-19 21:07:00
1:53 PM,57.9,44.1,60,29.72,10.0,West,13.8,18.4,0.00,,Overcast,280,2013-12-19 21:53:00
2:53 PM,55.9,41.0,57,29.73,10.0,NW,10.4,-,N/A,,Scattered Clouds,320,2013-12-19 22:53:00
3:36 PM,55.4,39.2,54,29.73,10.0,WNW,8.1,-,N/A,,Mostly Cloudy,300,2013-12-19 23:36:00
3:53 PM,55.9,39.0,53,29.73,10.0,NW,6.9,-,N/A,,Mostly Cloudy,310,2013-12-19 23:53:00
4:53 PM,54.0,44.1,69,29.74,10.0,ENE,4.6,-,N/A,,Mostly Cloudy,60,2013-12-20 00:53:00
5:53 PM,53.1,45.0,74,29.75,10.0,East,3.5,-,N/A,,Mostly Cloudy,90,2013-12-20 01:53:00
6:35 PM,51.8,42.8,71,29.76,10.0,Calm,Calm,-,N/A,,Scattered Clouds,0,2013-12-20 02:35:00
6:53 PM,52.0,43.0,71,29.75,10.0,Calm,Calm,-,N/A,,Scattered Clouds,0,2013-12-20 02:53:00
6:56 PM,51.8,42.8,71,29.75,10.0,Calm,Calm,-,N/A,,Scattered Clouds,0,2013-12-20 02:56:00
7:53 PM,53.1,43.0,69,29.77,10.0,NNE,3.5,-,N/A,,Mostly Cloudy,30,2013-12-20 03:53:00
8:53 PM,52.0,43.0,71,29.77,10.0,Calm,Calm,-,N/A,,Mostly Cloudy,0,2013-12-20 04:53:00
9:53 PM,51.1,43.0,74,29.78,10.0,West,3.5,-,N/A,,Partly Cloudy,280,2013-12-20 05:53:00
10:53 PM,50.0,43.0,77,29.78,10.0,Calm,Calm,-,N/A,,Clear,0,2013-12-20 06:53:00
11:53 PM,46.9,42.1,83,29.79,10.0,Calm,Calm,-,N/A,,Clear,0,2013-12-20 07:53:00